sat.trackr.live / text

‹ back to catalog

STARLINK-35833

NORAD 66542 · 2025-265AC

PAYLOAD ACTIVE UNKNOWN

§ Identity

Operator
Country
US
Launch date
2025-11-19
Launch site
AFETR
Launch vehicle
Mass (kg)
RCS (m²)

Purposes: comms

External: N2YO · Heavens-Above · Gunter

§ Orbital elements

Epoch: 2026-09-20T17:00:28.824480Z

Period
94.27 min
Inclination
42.9966°
Eccentricity
0.0001013
Mean motion
15.27575697 rev/d
Perigee alt
482.4 km
Apogee alt
483.8 km
Semi-major
6,861.2 km
B*
4.3283e-4
RAAN
257.0334°
Arg perigee
227.1103°
Mean anomaly
132.9664°
Rev number
4,693

§ Raw data

STARLINK-358331 66542U 25265AC  26263.70866695  .00011666  00000+0  43283-3 0  99912 66542  42.9966 257.0334 0001013 227.1103 132.9664 15.27575697 46933

JSON: /api/v1/satellites/66542 · /tle

For live sub-satellite position, see the globe view (requires WebGL).

§ Visibility from observer

Set your observer location to see the next 7 days of passes ≥ 10°. The values pass through the URL so the page stays shareable.

No JS? Fill the form by hand. The geolocation button needs JavaScript.